Location: Jarosław
(50.0191°N, 22.6835°E)
Time: 04:55:17
(UTC+01:00)

ISS - Visible Passes

Search period start: 24 November 2017 00:00
Search period end: 04 December 2017 00:00
Orbit: 402 x 407 km, 51.6° (Epoch: 24 November)

Date Brightness Start Highest point End Pass type
(mag) Time Alt. Az. Time Alt. Az. Time Alt. Az.
27 Nov -1.2 17:34:47 10° S 17:35:10 11° SSE 17:35:10 11° SSE visible
28 Nov -1.1 18:17:05 10° SW 18:17:50 15° SW 18:17:50 15° SW visible
29 Nov -2.3 17:25:11 10° SSW 17:27:45 25° SSE 17:27:45 25° SSE visible
30 Nov -1.7 16:33:40 10° S 16:35:45 16° SE 16:37:36 11° ESE visible
30 Nov -1.9 18:08:30 10° WSW 18:10:15 28° SW 18:10:15 28° SW visible
01 Dec -3.3 17:16:18 10° SW 17:19:26 44° SSE 17:20:01 39° ESE visible
01 Dec -0.2 18:52:34 10° W 18:52:41 11° W 18:52:41 11° W visible
02 Dec -2.5 16:24:16 10° SSW 16:27:09 29° SSE 16:29:44 12° E visible
02 Dec -2.5 18:00:07 10° WSW 18:02:23 41° W 18:02:23 41° W visible
03 Dec -3.8 17:07:43 10° WSW 17:10:59 74° SSE 17:12:04 39° E visible
03 Dec -0.5 18:44:17 10° W 18:44:42 13° W 18:44:42 13° W visible
